Simultaneous Nadir Overpasses (SNOs) Predictions

Prediction of SNOs between GOES-14 and NPP Satellite Orbit:

Table of predicted SNOs for the next 14.0 days since TLE Epoch: 6/5/2021
Index Date Time (GOES-14) GOES-14 Lat,Lon NPP Lat,Lon Distance(km) Time Diff (sec)
1 06/05/2021 08:13:44 0.06,-104.12 -0.44,-101.97 245.03 80
2 06/06/2021 20:33:02 -0.03,-104.33 -0.69,-107.29 337.46 80
3 06/07/2021 20:16:58 -0.05,-104.33 0.29,-102.76 178.75 80
4 06/09/2021 08:36:06 0.01,-104.11 0.91,-108.02 446.46 80
5 06/10/2021 08:20:03 0.03,-104.11 -0.13,-103.50 70.15 80
6 06/12/2021 20:21:36 -0.01,-104.32 -0.01,-104.29 4.40 21
7 06/15/2021 08:23:40 -0.00,-104.10 0.23,-105.02 105.39 80
8 06/16/2021 08:07:37 0.02,-104.10 -0.82,-100.49 411.25 80
9 06/17/2021 20:26:55 0.01,-104.32 -0.30,-105.81 170.13 80
10 06/18/2021 20:10:51 -0.00,-104.31 0.69,-101.28 346.18 80
